Location: Sabalos
(43.2860°N, 0.1414°E)
Time: 20:50:07
(UTC+00:00)

Thor Agena Rocket - Pass Details

Date: 05 July 2020
Orbit: 759 x 808 km, 99.0° (Epoch: 14 August)

Event Time Altitude Azimuth Distance (km) Brightness Sun altitude
Rises 22:24:51 0° 18° (NNE) 3,262 7.5 -20.2°
Reaches altitude 10° 22:27:14 10° 23° (NNE) 2,323 6.6 -20.4°
Maximum altitude 22:32:14 54° 101° (E) 932 3.7 -20.7°
Enters shadow 22:33:19 45° 143° (SE) 1,038 3.7 -20.8°
